EW4214 Weather Reports


time (UTC)temp
C
wind
direction
speed
KPH
gust
KPH
rain 1hr
cm
rain 24hr
cm
rain mn
cm
humidity
%
barometer
mb
20260504150902 22 187 0.0 0.0 0.00 0.00 0.00 61 1010.8
20260504140901 22 191 0.0 0.0 0.00 0.00 0.00 61 1010.4
20260504080931 30 220 1.6 9.7 0.00 0.00 0.00 45 1006.4
20260504045857 36 143 3.2 9.7 0.00 0.00 0.00 34 1009.5
20260504044857 35 192 0.0 11.3 0.00 0.00 0.00 35 1009.6
20260504043857 34 116 4.8 9.7 0.00 0.00 0.00 34 1009.8
20260504042856 34 200 0.0 9.7 0.00 0.00 0.00 36 1009.8
20260504041857 32 143 0.0 4.8 0.00 0.00 0.00 39 1010.0
20260504040856 32 196 0.0 6.4 0.00 0.00 0.00 40 1010.2
20260504040827 32 148 1.6 4.8 0.00 0.00 0.00 40 1010.3
20260504034856 32 211 3.2 11.3 0.00 0.00 0.00 41 1010.3
20260504034349 32 165 0.0 6.4 0.00 0.00 0.00 42 1010.2
20260504033841 32 174 1.6 11.3 0.00 0.00 0.00 42 1010.4
20260504031857 32 119 3.2 4.8 0.00 0.00 0.00 42 1010.3
20260504030857 32 151 1.6 6.4 0.00 0.00 0.00 43 1010.5
20260504030823 31 100 1.6 9.7 0.00 0.00 0.00 43 1010.7
20260504025352 30 209 1.6 4.8 0.00 0.00 0.00 45 1010.6
20260504024353 30 173 0.0 4.8 0.00 0.00 0.00 45 1010.6
20260504022856 30 165 1.6 4.8 0.00 0.00 0.00 46 1010.6
20260504021852 28 246 4.8 11.3 0.00 0.00 0.00 49 1010.5
20260504020850 28 203 1.6 6.4 0.00 0.00 0.00 48 1010.5
20260504020327 28 215 1.6 6.4 0.00 0.00 0.00 49 1010.6
20260504014839 28 153 1.6 4.8 0.00 0.00 0.00 50 1010.6
20260504013839 28 94 3.2 4.8 0.00 0.00 0.00 51 1010.7
20260504012833 27 148 1.6 4.8 0.00 0.00 0.00 51 1010.7
20260504011837 27 175 0.0 3.2 0.00 0.00 0.00 52 1010.5
20260504011751 27 168 1.6 4.8 0.00 0.00 0.00 53 1010.5
20260504005832 26 156 1.6 4.8 0.00 0.00 0.00 53 1010.4
20260504004833 26 136 0.0 4.8 0.00 0.00 0.00 54 1010.3
20260504003833 25 175 0.0 3.2 0.00 0.00 0.00 55 1010.2
20260504002832 25 148 1.6 4.8 0.00 0.00 0.00 55 1010.2
20260504001833 25 151 1.6 3.2 0.00 0.00 0.00 56 1010.2
20260504001754 25 180 0.0 4.8 0.00 0.00 0.00 56 1010.1
20260503235833 24 164 0.0 4.8 0.00 0.00 0.00 57 1009.9
20260503234833 24 166 0.0 3.2 0.00 0.00 0.00 57 1009.8
20260503233833 23 167 0.0 3.2 0.00 0.00 0.00 57 1009.6
20260503232833 23 166 0.0 1.6 0.00 0.00 0.00 58 1009.6
20260503232319 23 175 0.0 0.0 0.00 0.00 0.00 58 1009.7
20260503230833 23 179 0.0 0.0 0.00 0.00 0.00 58 1009.6
20260503225832 23 174 0.0 1.6 0.00 0.00 0.00 58 1009.5
20260503224832 23 181 0.0 1.6 0.00 0.00 0.00 58 1009.5
20260503224322 23 180 0.0 0.0 0.00 0.00 0.00 58 1009.5
20260503222832 23 175 0.0 1.6 0.00 0.00 0.00 57 1009.3
20260503221833 23 172 0.0 1.6 0.00 0.00 0.00 57 1009.2
20260503220833 23 173 0.0 1.6 0.00 0.00 0.00 57 1009.0
20260503220524 23 181 0.0 1.6 0.00 0.00 0.00 57 1008.8
20260503215514 24 178 0.0 1.6 0.00 0.00 0.00 57 1008.7
20260503213957 23 178 0.0 3.2 0.00 0.00 0.00 57 1008.6
20260503212953 23 173 0.0 4.8 0.00 0.00 0.00 57 1008.5
20260503212513 24 169 0.0 3.2 0.00 0.00 0.00 57 1008.4
20260503211458 24 167 0.0 0.0 0.00 0.00 0.00 56 1008.3
20260503205945 24 171 0.0 1.6 0.00 0.00 0.00 57 1008.1
20260503204943 24 170 0.0 4.8 0.00 0.00 0.00 56 1008.1
20260503203940 24 171 0.0 3.2 0.00 0.00 0.00 56 1008.1
20260503202937 24 155 1.6 4.8 0.00 0.00 0.00 56 1008.2
20260503201952 24 179 0.0 1.6 0.00 0.00 0.00 56 1008.3
20260503201931 24 138 3.2 3.2 0.00 0.00 0.00 56 1008.2
20260503195924 25 159 0.0 3.2 0.00 0.00 0.00 55 1008.3
20260503194921 25 180 0.0 4.8 0.00 0.00 0.00 56 1008.5
20260503193920 25 130 1.6 6.4 0.00 0.00 0.00 56 1008.5
20260503192919 25 149 1.6 3.2 0.00 0.00 0.00 56 1008.5
20260503191912 25 178 0.0 3.2 0.00 0.00 0.00 56 1008.6
20260503190913 25 162 1.6 3.2 0.00 0.00 0.00 56 1008.6
20260503185905 25 177 0.0 3.2 0.00 0.00 0.00 56 1008.7
20260503184901 25 169 0.0 1.6 0.00 0.00 0.00 57 1008.8
20260503184400 25 177 0.0 1.6 0.00 0.00 0.00 57 1008.9
20260503183358 25 176 0.0 1.6 0.00 0.00 0.00 57 1009.0
20260503181851 26 182 0.0 0.0 0.00 0.00 0.00 56 1009.2
20260503180858 26 182 0.0 0.0 0.00 0.00 0.00 56 1009.1
20260503180848 26 182 0.0 0.0 0.00 0.00 0.00 56 1009.2
20260503175341 26 182 0.0 0.0 0.00 0.00 0.00 56 1009.2
20260503173842 26 184 0.0 0.0 0.00 0.00 0.00 55 1009.2
20260503172835 26 176 0.0 0.0 0.00 0.00 0.00 55 1009.1
20260503171833 26 178 0.0 0.0 0.00 0.00 0.00 55 1009.2
20260503171328 26 180 0.0 0.0 0.00 0.00 0.00 54 1009.3